Location: Mainz-Finthen
(49.9906°N, 8.1713°E)
Time: 22:08:18
(UTC+00:00)

AAUSAT CUBESAT 2 - Visible Passes

Search period start: 05 December 2021 00:00
Search period end: 15 December 2021 00:00
Orbit: 570 x 588 km, 97.5° (Epoch: 04 December)

Date Brightness Start Highest point End Pass type
(mag) Time Alt. Az. Time Alt. Az. Time Alt. Az.
05 Dec ? 03:58:50 10° NE 04:02:22 27° E 04:05:54 10° SSE visible
05 Dec ? 05:34:02 10° N 05:37:44 33° WNW 05:41:25 10° SW visible
05 Dec ? 16:27:34 10° SSW 16:31:06 28° W 16:34:39 10° NW visible
06 Dec ? 04:03:27 10° NNE 04:07:06 30° E 04:10:45 10° SSE visible
06 Dec ? 05:38:48 10° N 05:42:24 30° WNW 05:46:00 10° SW visible
06 Dec ? 16:32:25 10° SSW 16:35:50 25° W 16:39:16 10° NW visible
07 Dec ? 04:08:04 10° NNE 04:11:50 34° E 04:15:35 10° SSE visible
07 Dec ? 05:43:35 10° N 05:47:04 27° WNW 05:50:34 10° WSW visible
07 Dec ? 16:37:18 10° SSW 16:40:34 23° W 16:43:52 10° NW visible
08 Dec ? 04:12:42 10° NNE 04:16:33 37° E 04:20:24 10° SSE visible
08 Dec ? 05:48:22 10° N 05:51:44 25° WNW 05:55:06 10° WSW visible
08 Dec ? 16:42:13 10° SW 16:45:19 21° W 16:48:26 10° NW visible
09 Dec ? 04:17:21 10° NNE 04:21:17 42° E 04:25:12 10° S visible
09 Dec ? 05:53:09 10° NNW 05:56:24 23° WNW 05:59:38 10° WSW visible
09 Dec ? 16:47:09 10° SW 16:50:03 19° W 16:52:58 10° NW visible
10 Dec ? 04:22:00 10° NNE 04:26:00 47° E 04:29:59 10° S visible
10 Dec ? 05:57:58 10° NNW 06:01:03 21° WNW 06:04:08 10° WSW visible
10 Dec ? 16:52:07 10° SW 16:54:48 17° W 16:57:29 10° NW visible
11 Dec ? 04:26:39 10° NNE 04:30:42 53° E 04:34:45 10° S visible
11 Dec ? 06:02:47 10° NNW 06:05:42 19° WNW 06:08:37 10° WSW visible
11 Dec ? 16:57:07 10° SW 16:59:32 15° W 17:01:58 10° NW visible
12 Dec ? 04:31:19 10° NNE 04:35:25 59° ESE 04:39:30 10° S visible
12 Dec ? 06:07:37 10° NNW 06:10:20 17° WNW 06:13:04 10° WSW visible
12 Dec ? 17:02:11 10° WSW 17:04:17 14° W 17:06:23 10° WNW visible
13 Dec ? 04:36:00 10° NNE 04:40:07 67° ESE 04:44:13 10° S visible
13 Dec ? 06:12:28 10° NNW 06:14:59 16° WNW 06:17:30 10° W visible
13 Dec ? 17:07:20 10° WSW 17:09:01 12° W 17:10:45 10° WNW visible
14 Dec ? 04:40:40 10° NNE 04:44:48 75° ESE 04:48:56 10° S visible
14 Dec ? 06:17:20 10° NNW 06:19:36 15° WNW 06:21:53 10° W visible
14 Dec ? 17:12:39 10° WSW 17:13:47 11° W 17:14:55 10° WNW visible
